Madison, MN

5:45 AM CST on November 14, 2019 (GMT -0600)
Madison-Lac Qui Parle County

Weather History for KDXX - September, 2019

Change the Weather History Date:

Friday, September 20, 2019

  Actual Average (KAQP) Record (KAQP)
Temperature  
Mean Temperature 78 °F -  
Max Temperature 89 °F 68 °F 87 °F (2019)
Min Temperature 66 °F 43 °F 30 °F (2006)
Cooling Degree Days 12    
Growing Degree Days 28 (Base 50)    
Moisture  
Dew Point 69 °F    
Average Humidity 77    
Maximum Humidity 100    
Minimum Humidity 49    
Precipitation  
Precipitation 0.00 in - - ()
Sea Level Pressure  
Sea Level Pressure 29.89 in    
Wind  
Wind Speed 9 mph (SSE)    
Max Wind Speed 18 mph    
Max Gust Speed 26 mph    
Visibility 10 miles    
Events      
Averages and records for this station are not official NWS values.
T = Trace of Precipitation, MM = Missing Value Source: NWS Daily Summary

Daily Weather History Graph

Daily Weather History Graph

Search for Another Location

Airport or City:

Astronomy

Sep. 20, 2019 Rise Set
Actual Time 7:09 AM CDT 7:26 PM CDT
Civil Twilight 6:39 AM CDT 7:55 PM CDT
Nautical Twilight 6:05 AM CDT 8:30 PM CDT
Astronomical Twilight 5:29 AM CDT 9:05 PM CDT
Moon 11:01 PM CDT (9/20) 1:30 PM CDT (9/20)
Length of Visible Light 13h 15m
Length of Day
12h 17m
Waning Gibbous, 65% of the Moon is Illuminated
Sep 20
Waning Gibbous
Sep 21
Last Quarter
Sep 28
New
Oct 5
First Quarter
Oct 13
Full

Hourly Weather History & Observations

Time (CDT) Temp. Heat Index Dew Point Humidity Pressure Visibility Wind Dir Wind Speed Gust Speed Precip Events Conditions
12:15 AM 68.0 °F - 64.4 °F 88% 29.99 in 10.0 mi SE 5.8 mph - N/A   Clear
12:16 AM 68.0 °F - 64.4 °F 88% 29.99 in 10.0 mi SE 5.8 mph - N/A   Clear
12:35 AM 66.2 °F - 64.4 °F 94% 29.98 in 10.0 mi SE 4.6 mph - N/A   Clear
12:40 AM 66.2 °F - 64.4 °F 94% 29.98 in 10.0 mi SE 5.8 mph - N/A   Clear
12:57 AM 66.2 °F - 64.4 °F 94% 29.98 in 10.0 mi ESE 6.9 mph - N/A   Clear
1:15 AM 66.2 °F - 64.4 °F 94% 29.98 in 10.0 mi ESE 5.8 mph - N/A   Clear
1:35 AM 68.0 °F - 64.4 °F 88% 29.98 in 10.0 mi ESE 4.6 mph - N/A   Scattered Clouds
1:55 AM 68.0 °F - 66.2 °F 94% 29.99 in 10.0 mi ESE 6.9 mph - N/A   Scattered Clouds
2:18 AM 68.0 °F - 66.2 °F 94% 29.98 in 10.0 mi ESE 5.8 mph - N/A   Scattered Clouds
2:37 AM 68.0 °F - 66.2 °F 94% 29.98 in 10.0 mi ESE 6.9 mph - N/A   Clear
2:56 AM 68.0 °F - 66.2 °F 94% 29.98 in 10.0 mi SE 5.8 mph - N/A   Clear
3:15 AM 68.0 °F - 66.2 °F 94% 29.98 in 10.0 mi SE 5.8 mph - N/A   Clear
3:16 AM 68.0 °F - 66.2 °F 94% 29.97 in 10.0 mi SE 5.8 mph - N/A   Clear
3:35 AM 69.8 °F - 66.2 °F 88% 29.97 in 10.0 mi SE 6.9 mph - N/A   Scattered Clouds
3:39 AM 69.8 °F - 66.2 °F 88% 29.97 in 10.0 mi SE 8.1 mph - N/A   Scattered Clouds
3:57 AM 69.8 °F - 66.2 °F 88% 29.96 in 10.0 mi SE 8.1 mph - N/A   Scattered Clouds
4:16 AM 69.8 °F - 66.2 °F 88% 29.95 in 10.0 mi SE 8.1 mph - N/A   Mostly Cloudy
4:35 AM 69.8 °F - 66.2 °F 88% 29.95 in 10.0 mi SE 8.1 mph - N/A   Mostly Cloudy
4:36 AM 69.8 °F - 66.2 °F 88% 29.95 in 10.0 mi SE 8.1 mph - N/A   Mostly Cloudy
4:55 AM 69.8 °F - 66.2 °F 88% 29.94 in 10.0 mi SE 6.9 mph - N/A   Mostly Cloudy
4:56 AM 69.8 °F - 66.2 °F 88% 29.94 in 10.0 mi SE 6.9 mph - N/A   Scattered Clouds
5:18 AM 69.8 °F - 66.2 °F 88% 29.94 in 10.0 mi ESE 5.8 mph - N/A   Clear
5:36 AM 69.8 °F - 68.0 °F 94% 29.95 in 10.0 mi SE 6.9 mph - N/A   Clear
5:55 AM 69.8 °F - 68.0 °F 94% 29.95 in 10.0 mi SE 9.2 mph - N/A   Clear
5:56 AM 69.8 °F - 68.0 °F 94% 29.94 in 10.0 mi SE 9.2 mph - N/A   Clear
6:15 AM 69.8 °F - 68.0 °F 94% 29.94 in 10.0 mi SE 9.2 mph - N/A   Clear
6:16 AM 69.8 °F - 68.0 °F 94% 29.94 in 10.0 mi SE 8.1 mph - N/A   Clear
6:35 AM 69.8 °F - 68.0 °F 94% 29.94 in 10.0 mi SE 6.9 mph - N/A   Clear
6:39 AM 69.8 °F - 68.0 °F 94% 29.94 in 10.0 mi SE 5.8 mph - N/A   Clear
6:58 AM 69.8 °F - 68.0 °F 94% 29.94 in 10.0 mi SE 8.1 mph - N/A   Clear
7:15 AM 69.8 °F - 68.0 °F 94% 29.94 in 10.0 mi SE 8.1 mph - N/A   Clear
7:35 AM 69.8 °F - 68.0 °F 94% 29.94 in 7.0 mi SE 9.2 mph - N/A   Scattered Clouds
7:36 AM 69.8 °F - 68.0 °F 94% 29.94 in 7.0 mi SE 10.4 mph - N/A   Scattered Clouds
7:55 AM 69.8 °F - 69.8 °F 100% 29.94 in 4.0 mi SSE 10.4 mph - N/A   Overcast
8:18 AM 71.6 °F - 69.8 °F 94% 29.94 in 4.0 mi SSE 9.2 mph - N/A   Overcast
8:36 AM 71.6 °F - 71.6 °F 100% 29.94 in 5.0 mi SE 11.5 mph - N/A   Mostly Cloudy
8:55 AM 73.4 °F - 71.6 °F 94% 29.94 in 7.0 mi SE 12.7 mph 16.1 mph N/A   Scattered Clouds
9:15 AM 75.2 °F - 71.6 °F 89% 29.94 in 10.0 mi SSE 11.5 mph 18.4 mph N/A   Clear
9:16 AM 75.2 °F - 71.6 °F 89% 29.94 in 10.0 mi SSE 11.5 mph 18.4 mph N/A   Clear
9:35 AM 75.2 °F - 71.6 °F 89% 29.94 in 10.0 mi SSE 9.2 mph - N/A   Clear
9:40 AM 75.2 °F - 71.6 °F 89% 29.93 in 10.0 mi SSE 12.7 mph 18.4 mph N/A   Clear
9:57 AM 77.0 °F - 71.6 °F 83% 29.93 in 10.0 mi SSE 11.5 mph - N/A   Clear
10:15 AM 78.8 °F - 71.6 °F 78% 29.92 in 10.0 mi SSE 10.4 mph 18.4 mph N/A   Clear
10:35 AM 80.6 °F 84.6 °F 71.6 °F 74% 29.92 in 10.0 mi SSE 11.5 mph 18.4 mph N/A   Clear
10:36 AM 80.6 °F 84.6 °F 71.6 °F 74% 29.92 in 10.0 mi SSE 12.7 mph 18.4 mph N/A   Clear
10:55 AM 78.8 °F - 73.4 °F 83% 29.92 in 10.0 mi SSE 11.5 mph - N/A   Clear
10:56 AM 78.8 °F - 73.4 °F 83% 29.92 in 10.0 mi SSE 11.5 mph - N/A   Clear
11:19 AM 82.4 °F 88.2 °F 73.4 °F 74% 29.92 in 10.0 mi SSE 11.5 mph - N/A   Clear
11:37 AM 84.2 °F 90.9 °F 73.4 °F 70% 29.91 in 10.0 mi South 8.1 mph - N/A   Clear
11:56 AM 86.0 °F 91.8 °F 71.6 °F 62% 29.90 in 10.0 mi South 15.0 mph 20.7 mph N/A   Clear
12:16 PM 87.8 °F 93.8 °F 71.6 °F 58% 29.89 in 10.0 mi South 12.7 mph 20.7 mph N/A   Clear
12:35 PM 87.8 °F 92.6 °F 69.8 °F 55% 29.88 in 10.0 mi South 15.0 mph 20.7 mph N/A   Clear
12:57 PM 87.8 °F 93.8 °F 71.6 °F 58% 29.87 in 10.0 mi South 13.8 mph 20.7 mph N/A   Clear
1:16 PM 87.8 °F 92.6 °F 69.8 °F 55% 29.87 in 10.0 mi SSW 16.1 mph 23.0 mph N/A   Clear
1:35 PM 87.8 °F 93.8 °F 71.6 °F 58% 29.87 in 10.0 mi South 18.4 mph 23.0 mph N/A   Clear
1:36 PM 87.8 °F 93.8 °F 71.6 °F 58% 29.87 in 10.0 mi South 17.3 mph 23.0 mph N/A   Clear
1:55 PM 87.8 °F 92.6 °F 69.8 °F 55% 29.86 in 10.0 mi South 15.0 mph 26.5 mph N/A   Scattered Clouds
2:16 PM 87.8 °F 92.6 °F 69.8 °F 55% 29.86 in 10.0 mi SSW 15.0 mph 21.9 mph N/A   Scattered Clouds
2:36 PM 87.8 °F 92.6 °F 69.8 °F 55% 29.86 in 10.0 mi South 13.8 mph 18.4 mph N/A   Scattered Clouds
2:55 PM 87.8 °F 92.6 °F 69.8 °F 55% 29.86 in 10.0 mi South 16.1 mph 24.2 mph N/A   Scattered Clouds
3:18 PM 89.6 °F 94.7 °F 69.8 °F 52% 29.85 in 10.0 mi South 17.3 mph 20.7 mph N/A   Scattered Clouds
3:37 PM 87.8 °F 92.6 °F 69.8 °F 55% 29.85 in 10.0 mi South 13.8 mph 21.9 mph N/A   Scattered Clouds
3:56 PM 89.6 °F 93.4 °F 68.0 °F 49% 29.85 in 10.0 mi South 16.1 mph 24.2 mph N/A   Scattered Clouds
4:15 PM 89.6 °F 93.4 °F 68.0 °F 49% 29.85 in 10.0 mi South 15.0 mph 20.7 mph N/A   Scattered Clouds
4:16 PM 89.6 °F 93.4 °F 68.0 °F 49% 29.85 in 10.0 mi South 13.8 mph 20.7 mph N/A   Scattered Clouds
4:35 PM 89.6 °F 94.7 °F 69.8 °F 52% 29.85 in 10.0 mi South 10.4 mph - N/A   Scattered Clouds
4:57 PM 89.6 °F 94.7 °F 69.8 °F 52% 29.85 in 10.0 mi South 12.7 mph 18.4 mph N/A   Scattered Clouds
5:16 PM 87.8 °F 91.4 °F 68.0 °F 52% 29.84 in 10.0 mi South 13.8 mph 23.0 mph N/A   Clear
5:35 PM 87.8 °F 91.4 °F 68.0 °F 52% 29.84 in 10.0 mi South 16.1 mph 23.0 mph N/A   Clear
5:36 PM 87.8 °F 91.4 °F 68.0 °F 52% 29.84 in 10.0 mi South 15.0 mph 23.0 mph N/A   Clear
5:55 PM 87.8 °F 91.4 °F 68.0 °F 52% 29.83 in 10.0 mi SSE 16.1 mph 19.6 mph N/A   Clear
5:56 PM 87.8 °F 91.4 °F 68.0 °F 52% 29.84 in 10.0 mi South 13.8 mph 19.6 mph N/A   Clear
6:19 PM 84.2 °F 88.4 °F 69.8 °F 62% 29.83 in 10.0 mi SSE 11.5 mph 16.1 mph N/A   Clear
6:36 PM 84.2 °F 87.3 °F 68.0 °F 58% 29.82 in 10.0 mi SSE 11.5 mph - N/A   Clear
6:56 PM 82.4 °F 85.4 °F 68.0 °F 62% 29.82 in 10.0 mi SSE 9.2 mph - N/A   Clear
7:15 PM 82.4 °F 85.4 °F 68.0 °F 62% 29.82 in 10.0 mi SSE 9.2 mph - N/A   Clear
7:16 PM 82.4 °F 85.4 °F 68.0 °F 62% 29.82 in 10.0 mi SSE 10.4 mph - N/A   Clear
7:35 PM 80.6 °F 82.7 °F 66.2 °F 61% 29.81 in 10.0 mi SSE 9.2 mph - N/A   Clear
7:39 PM 80.6 °F 82.7 °F 66.2 °F 61% 29.81 in 10.0 mi SSE 9.2 mph - N/A   Clear
7:58 PM 78.8 °F - 68.0 °F 69% 29.81 in 10.0 mi SSE 8.1 mph - N/A   Clear
8:15 PM 78.8 °F - 69.8 °F 74% 29.81 in 10.0 mi SSE 8.1 mph - N/A   Clear
8:35 PM 78.8 °F - 69.8 °F 74% 29.81 in 10.0 mi SSE 11.5 mph - N/A   Clear
8:36 PM 78.8 °F - 69.8 °F 74% 29.81 in 10.0 mi SSE 10.4 mph - N/A   Clear
8:55 PM 78.8 °F - 68.0 °F 69% 29.81 in 10.0 mi SSE 9.2 mph - N/A   Clear
9:18 PM 78.8 °F - 68.0 °F 69% 29.81 in 10.0 mi SSE 10.4 mph - N/A   Clear
9:36 PM 78.8 °F - 68.0 °F 69% 29.80 in 10.0 mi SSE 11.5 mph - N/A   Clear
9:55 PM 77.0 °F - 69.8 °F 78% 29.80 in 10.0 mi SSE 11.5 mph - N/A   Clear
9:56 PM 77.0 °F - 69.8 °F 78% 29.80 in 10.0 mi SSE 11.5 mph - N/A   Clear
10:15 PM 75.2 °F - 69.8 °F 83% 29.80 in 10.0 mi SSE 10.4 mph - N/A   Clear
10:16 PM 75.2 °F - 68.0 °F 78% 29.80 in 10.0 mi SSE 10.4 mph - N/A   Clear
10:35 PM 75.2 °F - 69.8 °F 83% 29.80 in 10.0 mi SSE 9.2 mph - N/A   Clear
10:40 PM 75.2 °F - 69.8 °F 83% 29.80 in 10.0 mi SSE 10.4 mph - N/A   Clear
10:57 PM 75.2 °F - 69.8 °F 83% 29.80 in 10.0 mi SSE 10.4 mph - N/A   Clear
11:15 PM 75.2 °F - 69.8 °F 83% 29.80 in 10.0 mi SSE 8.1 mph - N/A   Clear
11:35 PM 73.4 °F - 69.8 °F 88% 29.80 in 10.0 mi SSE 8.1 mph - N/A   Clear
11:55 PM 75.2 °F - 68.0 °F 78% 29.80 in 10.0 mi SSE 10.4 mph - N/A   Clear
11:56 PM 75.2 °F - 68.0 °F 78% 29.80 in 10.0 mi SSE 9.2 mph - N/A   Clear